STARLINK-31666, 59572

Orbit data source: Space-Track

STARLINK-31666, 59572 is a payload satellite owned by SpaceX/Seattle (US) in LEO that was launched on Tue, 23 Apr 2024 UTC via an FALCON 9 launch vehicle from the Air Force Eastern Test Range (AFETR). Payload-class satellites include a variety of spacecraft equipped with specific instruments for various scientific and technological missions. These include communications satellites like Starlink; space stations such as the ISS; scientific satellites like the Hubble; Earth observation satellites from companies like Planet Labs, Umbra, and HawkEye 360; GPS; miniature CubeSats for education and research; and military/defense satellites.

Loading next visibility...
Identifier
59572, 2024-076J
Orbit
LEO
Country
Flag of USUS
Related business
Manufacturer
SpaceX/Seattle
Mission
Operational Commercial Communications
Bus & Motor
STARLINK V2M, Unknown motor
Mass
730 kg wet, ~700 kg dry
Launch date (UTC)
2024-04-23 (2 years ago)
Launch vehicle
FALCON 9
Launch site
Air Force Eastern Test Range (AFETR)
Object type
Payload
Rocket body
Debris
Shape & HBR
Box + 2 Pan, 17.7 m
Radar Cross Section
33.884 m², Large (>1 m²)

Expand to show TLE details & history
Last TLE update: 19 hours ago

TLE from 19 hours ago
0 STARLINK-31666
1 59572U 24076J   25349.41095872 -.00001611  00000-0 -49052-4 0  9991
2 59572  43.0032 117.9879 0001047 277.8441  82.2292 15.27575020 93695
Epoch: 2025-12-15T09:51Z
TLE epoch observation values (Epoch: 2025-12-15T09:51:46.833Z)
Latitude
-0°
Longitude
-114.26715°
Altitude
482.743 km
Speed
7.626 km/s
True Right ascension
07h 51m 57s
True Declination
0° 00' 00"
Sunlit
Object was in full shadow at epoch
Visualization orbit readout
Latitude
Unknown
Longitude
Unknown
Altitude
Unknown
Speed
Unknown
Apparent Right ascension
Unknown
Apparent Declination
Unknown
Sunlit
N/A
Visualization observer readout
Local Sidereal Time
03:26:39
Azimuth
Unknown
Elevation
Unknown
Doppler factor
Unknown
Orbital elements
Apogee altitude
485.727 km
Perigee altitude
484.29 km
Semi-major axis
6,863.146 km
Eccentricity
0.0001
Inclination
43.0032°
RAAN
117.9879°
Arg. of periapsis
277.8441°
True anomaly
82.24109°
Mean anomaly
82.2292°
Eccentric anomaly
82.23514°
Mean motion
3.81732 °/min
Orbital period
94.31 mins
BSTAR
-0.000049052
Loading maneuver chart data...
Computing Atmospheric mass density...
Loading historical data...
Loading historical data...
Loading historical data...
Loading historical data...
Loading historical data...
Loading historical data...
Loading historical data...

Documentation

Showing up to 5 results
|